Home > Time Zones > World Clock > Weather > Iran > Ahvaz > Past weeks

Flag for Iran Weather past 2 weeks in Ahvaz, Iran

Now
97 °F

Sunny.


Feels Like: 96 °F
Forecast: 89 / 116 °F
Wind: 5 mph from West

Location: Ahwaz

Current Time: Jul 23, 2014 at 1:08:48 PM

Latest Report: Jul 23, 2014 at 10:30 AM


Visibility: 10 mi

Pressure: 29.45 "Hg

Humidity: 28%

Dew point: 59 °F

Location of AhvazLocation

Historic Weather in Ahvaz — Graph

°F

Ahvaz temperature yesterday

Maximum temperature yesterday: 111 °F (at 3:30 PM)
Minimum temperature yesterday: 93 °F (at 3:30 AM)
Average temperature yesterday: 103 °F

Past Weeks' High & Low Weather Summary

 TemperatureHumidityPressure
High122 °F (Jul 17, 1:30 PM)45% (Jul 10, 7:30 AM)29.50 "Hg (Jul 10, 7:30 AM)
Low81 °F (Jul 10, 6:30 AM)8% (Jul 8, 3:30 PM)29.30 "Hg (Jul 17, 6:30 PM)
Average103 °F19%29.43 "Hg
* Reported Jul 8 10:30 AM — Jul 23 10:30 AM, Ahvaz, Weather by CustomWeather, © 2014

Note: Actual official high and low records may vary slightly from our data, if they occured in-between our weather recording intervals... More about our weather records

Advertising

Ahvaz weather history for previous 24 hours

 ConditionsComfort  
Time TempWeatherWind HumidityBarometerVisibility
10:30 AM
Jul 23
97 °FSunny.5 mph28%29.45 "Hg10 mi
9:55 AM95 °FSunny.9 mph28%29.45 "Hg10 mi
9:30 AM93 °FSunny.5 mph30%29.45 "Hg10 mi
8:55 AM90 °FSunny.5 mph33%29.45 "Hg10 mi
8:30 AM90 °FSunny.5 mph33%29.45 "Hg10 mi
7:55 AM88 °FSunny.5 mph35%29.45 "Hg10 mi
7:30 AM88 °FClear.9 mph38%29.45 "Hg10 mi
6:30 AM90 °FClear.7 mph33%29.45 "Hg10 mi
5:30 AM91 °FClear.5 mph28%29.45 "Hg10 mi
4:30 AM91 °FClear.7 mph28%29.45 "Hg10 mi
9:30 PM
Jul 22
102 °FSunny.7 mph15%29.47 "Hg10 mi
9:00 PM102 °FSunny.7 mph15%29.45 "Hg10 mi
8:30 PM104 °FSunny.7 mph14%29.45 "Hg10 mi
8:00 PM104 °FSunny.9 mph14%29.45 "Hg10 mi
7:30 PM106 °FSunny.14 mph13%29.45 "Hg10 mi
7:00 PM108 °FSunny.12 mph10%29.45 "Hg10 mi
6:30 PM108 °FSunny.12 mph10%29.45 "Hg10 mi
6:00 PM108 °FSunny.12 mph10%29.45 "Hg10 mi
5:30 PM109 °FSunny.14 mph10%29.45 "Hg10 mi
5:00 PM109 °FSunny.14 mph9%29.47 "Hg10 mi
4:30 PM109 °FSunny.14 mph9%29.47 "Hg10 mi
4:00 PM111 °FSunny.12 mph9%29.47 "Hg10 mi
3:30 PM111 °FSunny.16 mph9%29.47 "Hg5 mi
3:00 PM109 °FSunny.14 mph9%29.47 "Hg5 mi
2:30 PM109 °FSunny.20 mph9%29.47 "Hg5 mi
2:00 PM109 °FSunny.18 mph8%29.47 "Hg10 mi
1:30 PM109 °FSunny.16 mph8%29.47 "Hg10 mi
1:00 PM109 °FSunny.18 mph10%29.50 "Hg5 mi
Weather by CustomWeather, © 2014

See weather overviewHow to use our weather pages